Time,TemperatureF,DewpointF,PressureIn,WindDirection,WindDirectionDegrees,WindSpeedMPH,WindSpeedGustMPH,Humidity,HourlyPrecipIn,Conditions,Clouds,dailyrainin,SoftwareType,DateUTC
2013-06-08 00:14:00,54.2,54.0,29.76,East,79,0.0,2.0,100,0.11,,,0.02,weatherlink.com 1.10,2013-06-08 04:14:00,
2013-06-08 00:29:00,54.1,54.0,29.76,NW,315,0.0,0.0,100,0.11,,,0.06,weatherlink.com 1.10,2013-06-08 04:29:00,
2013-06-08 00:44:00,54.2,54.0,29.75,ENE,72,2.0,2.0,100,0.10,,,0.07,weatherlink.com 1.10,2013-06-08 04:44:00,
2013-06-08 00:59:00,54.2,54.0,29.75,ENE,68,0.0,2.0,100,0.08,,,0.08,weatherlink.com 1.10,2013-06-08 04:59:00,
2013-06-08 01:14:00,54.1,54.0,29.74,ENE,65,0.0,2.0,100,0.07,,,0.09,weatherlink.com 1.10,2013-06-08 05:14:00,
2013-06-08 01:29:00,53.9,54.0,29.73,NW,323,0.0,1.0,100,0.05,,,0.11,weatherlink.com 1.10,2013-06-08 05:29:00,
2013-06-08 01:44:00,53.7,54.0,29.74,ENE,68,0.0,2.0,100,0.05,,,0.12,weatherlink.com 1.10,2013-06-08 05:44:00,
2013-06-08 01:59:00,53.6,54.0,29.74,NE,51,0.0,1.0,100,0.05,,,0.13,weatherlink.com 1.10,2013-06-08 05:59:00,
2013-06-08 02:15:00,53.6,54.0,29.74,North,352,0.0,1.0,100,0.05,,,0.14,weatherlink.com 1.10,2013-06-08 06:15:00,
2013-06-08 02:29:00,53.6,54.0,29.74,NW,315,0.0,0.0,100,0.04,,,0.15,weatherlink.com 1.10,2013-06-08 06:29:00,
2013-06-08 02:44:00,53.6,54.0,29.73,NW,316,0.0,2.0,100,0.05,,,0.17,weatherlink.com 1.10,2013-06-08 06:44:00,
2013-06-08 02:59:00,53.5,54.0,29.73,West,276,0.0,2.0,100,0.05,,,0.18,weatherlink.com 1.10,2013-06-08 06:59:00,
2013-06-08 03:14:00,53.5,54.0,29.73,North,4,0.0,1.0,100,0.06,,,0.20,weatherlink.com 1.10,2013-06-08 07:14:00,
2013-06-08 03:29:00,53.6,54.0,29.73,North,354,0.0,0.0,100,0.06,,,0.21,weatherlink.com 1.10,2013-06-08 07:29:00,
2013-06-08 03:44:00,53.6,54.0,29.72,NW,325,0.0,0.0,100,0.05,,,0.22,weatherlink.com 1.10,2013-06-08 07:44:00,
2013-06-08 03:59:00,53.6,54.0,29.72,NNE,18,0.0,0.0,100,0.04,,,0.22,weatherlink.com 1.10,2013-06-08 07:59:00,
2013-06-08 04:14:00,53.6,54.0,29.71,NNW,328,0.0,1.0,100,0.04,,,0.24,weatherlink.com 1.10,2013-06-08 08:14:00,
2013-06-08 04:29:00,53.6,54.0,29.71,ESE,111,0.0,0.0,100,0.05,,,0.26,weatherlink.com 1.10,2013-06-08 08:29:00,
2013-06-08 04:44:00,53.6,54.0,29.71,ENE,65,0.0,1.0,100,0.04,,,0.26,weatherlink.com 1.10,2013-06-08 08:44:00,
2013-06-08 04:59:00,53.6,54.0,29.71,West,269,0.0,1.0,100,0.04,,,0.26,weatherlink.com 1.10,2013-06-08 08:59:00,
2013-06-08 05:14:00,53.8,54.0,29.72,ENE,69,0.0,1.0,100,0.02,,,0.26,weatherlink.com 1.10,2013-06-08 09:14:00,
2013-06-08 05:29:00,53.8,54.0,29.72,East,97,1.0,2.0,100,0.00,,,0.26,weatherlink.com 1.10,2013-06-08 09:29:00,
2013-06-08 05:44:00,54.0,54.0,29.72,East,85,0.0,0.0,100,0.00,,,0.26,weatherlink.com 1.10,2013-06-08 09:44:00,
2013-06-08 05:59:00,54.1,54.0,29.73,East,86,0.0,0.0,100,0.00,,,0.26,weatherlink.com 1.10,2013-06-08 09:59:00,
2013-06-08 06:14:00,54.3,54.0,29.74,ENE,67,0.0,0.0,100,0.00,,,0.26,weatherlink.com 1.10,2013-06-08 10:14:00,
2013-06-08 06:29:00,54.5,55.0,29.74,West,274,0.0,1.0,100,0.00,,,0.26,weatherlink.com 1.10,2013-06-08 10:29:00,
2013-06-08 06:44:00,54.7,55.0,29.75,West,277,0.0,1.0,100,0.00,,,0.26,weatherlink.com 1.10,2013-06-08 10:44:00,
2013-06-08 06:59:00,55.4,55.0,29.75,NNE,18,0.0,0.0,100,0.00,,,0.26,weatherlink.com 1.10,2013-06-08 10:59:00,
2013-06-08 07:14:00,55.7,56.0,29.76,NW,316,0.0,1.0,100,0.00,,,0.26,weatherlink.com 1.10,2013-06-08 11:14:00,
2013-06-08 07:29:00,56.1,56.0,29.77,WNW,285,0.0,1.0,100,0.00,,,0.26,weatherlink.com 1.10,2013-06-08 11:29:00,
2013-06-08 07:45:00,56.9,57.0,29.77,WNW,285,1.0,1.0,100,0.00,,,0.26,weatherlink.com 1.10,2013-06-08 11:45:00,
2013-06-08 08:00:00,57.7,58.0,29.78,NE,40,0.0,0.0,99,0.00,,,0.26,weatherlink.com 1.10,2013-06-08 12:00:00,
2013-06-08 08:15:00,58.5,58.0,29.78,West,269,0.0,2.0,98,0.00,,,0.26,weatherlink.com 1.10,2013-06-08 12:15:00,
2013-06-08 08:30:00,58.6,58.0,29.79,WSW,254,0.0,3.0,97,0.00,,,0.26,weatherlink.com 1.10,2013-06-08 12:30:00,
2013-06-08 08:45:00,59.3,59.0,29.80,North,9,0.0,3.0,97,0.00,,,0.26,weatherlink.com 1.10,2013-06-08 12:45:00,
2013-06-08 09:00:00,59.9,59.0,29.80,West,267,0.0,2.0,95,0.00,,,0.26,weatherlink.com 1.10,2013-06-08 13:00:00,
2013-06-08 09:15:00,60.5,59.0,29.81,NNE,33,0.0,2.0,94,0.00,,,0.26,weatherlink.com 1.10,2013-06-08 13:15:00,
2013-06-08 09:30:00,60.4,58.0,29.81,NNE,20,0.0,3.0,93,0.00,,,0.26,weatherlink.com 1.10,2013-06-08 13:30:00,
2013-06-08 09:45:00,61.1,59.0,29.81,NNE,12,1.0,4.0,92,0.00,,,0.26,weatherlink.com 1.10,2013-06-08 13:45:00,
2013-06-08 10:00:00,61.3,59.0,29.81,ENE,74,0.0,3.0,92,0.00,,,0.26,weatherlink.com 1.10,2013-06-08 14:00:00,
2013-06-08 10:15:00,61.7,59.0,29.82,West,279,0.0,1.0,92,0.00,,,0.26,weatherlink.com 1.10,2013-06-08 14:15:00,
2013-06-08 10:30:00,62.3,60.0,29.82,NNE,18,0.0,2.0,93,0.00,,,0.26,weatherlink.com 1.10,2013-06-08 14:30:00,
2013-06-08 10:45:00,63.2,61.0,29.83,West,269,0.0,3.0,91,0.00,,,0.26,weatherlink.com 1.10,2013-06-08 14:45:00,
2013-06-08 11:00:00,64.9,62.0,29.83,SSE,148,0.0,3.0,89,0.00,,,0.26,weatherlink.com 1.10,2013-06-08 15:00:00,
2013-06-08 11:15:00,65.7,62.0,29.83,WSW,252,0.0,2.0,86,0.00,,,0.26,weatherlink.com 1.10,2013-06-08 15:15:00,
2013-06-08 11:30:00,65.6,61.0,29.84,North,1,0.0,3.0,86,0.00,,,0.26,weatherlink.com 1.10,2013-06-08 15:30:00,
2013-06-08 11:45:00,65.9,61.0,29.85,North,5,0.0,4.0,84,0.00,,,0.26,weatherlink.com 1.10,2013-06-08 15:45:00,
2013-06-08 12:00:00,65.9,61.0,29.85,WSW,257,3.0,4.0,84,0.00,,,0.26,weatherlink.com 1.10,2013-06-08 16:00:00,
2013-06-08 12:15:00,66.6,61.0,29.85,ENE,58,1.0,4.0,83,0.00,,,0.26,weatherlink.com 1.10,2013-06-08 16:15:00,
2013-06-08 12:30:00,67.3,62.0,29.86,ENE,70,2.0,4.0,82,0.00,,,0.26,weatherlink.com 1.10,2013-06-08 16:30:00,
2013-06-08 12:45:00,66.9,61.0,29.86,NE,50,2.0,7.0,82,0.00,,,0.26,weatherlink.com 1.10,2013-06-08 16:45:00,
2013-06-08 13:00:00,68.1,62.0,29.86,North,349,0.0,4.0,80,0.00,,,0.26,weatherlink.com 1.10,2013-06-08 17:00:00,
2013-06-08 13:15:00,68.5,62.0,29.86,West,259,1.0,9.0,80,0.00,,,0.26,weatherlink.com 1.10,2013-06-08 17:15:00,
2013-06-08 13:30:00,69.1,62.0,29.86,North,357,2.0,4.0,78,0.00,,,0.26,weatherlink.com 1.10,2013-06-08 17:30:00,
2013-06-08 13:46:00,69.6,62.0,29.86,NW,311,1.0,7.0,77,0.00,,,0.26,weatherlink.com 1.10,2013-06-08 17:46:00,
2013-06-08 14:01:00,69.6,62.0,29.87,North,5,1.0,8.0,76,0.00,,,0.26,weatherlink.com 1.10,2013-06-08 18:01:00,
2013-06-08 14:16:00,69.9,63.0,29.86,NNW,340,1.0,7.0,79,0.00,,,0.26,weatherlink.com 1.10,2013-06-08 18:16:00,
2013-06-08 14:31:00,69.7,62.0,29.86,North,352,0.0,5.0,76,0.00,,,0.26,weatherlink.com 1.10,2013-06-08 18:31:00,
2013-06-08 14:46:00,70.0,62.0,29.87,West,278,1.0,8.0,75,0.00,,,0.26,weatherlink.com 1.10,2013-06-08 18:46:00,
2013-06-08 15:01:00,70.1,62.0,29.87,NW,314,0.0,5.0,76,0.00,,,0.26,weatherlink.com 1.10,2013-06-08 19:01:00,
2013-06-08 15:16:00,70.2,62.0,29.88,North,352,1.0,5.0,74,0.00,,,0.26,weatherlink.com 1.10,2013-06-08 19:16:00,
2013-06-08 15:31:00,70.4,62.0,29.88,NE,44,2.0,6.0,74,0.00,,,0.26,weatherlink.com 1.10,2013-06-08 19:31:00,
2013-06-08 15:46:00,70.2,62.0,29.89,NNE,30,2.0,6.0,74,0.00,,,0.26,weatherlink.com 1.10,2013-06-08 19:46:00,
2013-06-08 16:02:00,70.5,62.0,29.89,NNW,347,2.0,8.0,75,0.00,,,0.26,weatherlink.com 1.10,2013-06-08 20:02:00,
2013-06-08 16:16:00,70.6,62.0,29.90,West,266,1.0,8.0,75,0.00,,,0.26,weatherlink.com 1.10,2013-06-08 20:16:00,
2013-06-08 16:31:00,69.2,61.0,29.91,ENE,71,0.0,8.0,74,0.00,,,0.26,weatherlink.com 1.10,2013-06-08 20:31:00,
2013-06-08 16:46:00,68.2,60.0,29.91,WNW,293,0.0,7.0,76,0.00,,,0.26,weatherlink.com 1.10,2013-06-08 20:46:00,
2013-06-08 17:01:00,67.3,60.0,29.91,WSW,255,1.0,8.0,77,0.00,,,0.26,weatherlink.com 1.10,2013-06-08 21:01:00,
2013-06-08 17:31:00,66.2,60.0,29.92,East,100,0.0,4.0,81,0.00,,,0.26,weatherlink.com 1.10,2013-06-08 21:31:00,
2013-06-08 17:46:00,66.7,60.0,29.93,South,174,0.0,3.0,80,0.00,,,0.26,weatherlink.com 1.10,2013-06-08 21:46:00,
2013-06-08 18:16:00,67.1,61.0,29.92,ENE,72,0.0,3.0,80,0.00,,,0.26,weatherlink.com 1.10,2013-06-08 22:16:00,
2013-06-08 18:31:00,66.7,61.0,29.93,NW,309,0.0,4.0,81,0.00,,,0.26,weatherlink.com 1.10,2013-06-08 22:31:00,
2013-06-08 18:46:00,66.6,61.0,29.93,West,277,0.0,2.0,81,0.00,,,0.26,weatherlink.com 1.10,2013-06-08 22:46:00,
2013-06-08 19:16:00,67.3,61.0,29.93,NNE,16,0.0,2.0,81,0.00,,,0.26,weatherlink.com 1.10,2013-06-08 23:16:00,
2013-06-08 19:31:00,67.5,62.0,29.95,ESE,122,1.0,2.0,81,0.00,,,0.26,weatherlink.com 1.10,2013-06-08 23:31:00,
2013-06-08 19:46:00,66.3,60.0,29.95,West,271,1.0,9.0,81,0.00,,,0.26,weatherlink.com 1.10,2013-06-08 23:46:00,
2013-06-08 20:01:00,65.7,60.0,29.96,ENE,65,0.0,4.0,82,0.00,,,0.26,weatherlink.com 1.10,2013-06-09 00:01:00,
2013-06-08 20:16:00,65.2,60.0,29.95,NNE,18,0.0,5.0,82,0.00,,,0.26,weatherlink.com 1.10,2013-06-09 00:16:00,
2013-06-08 20:31:00,64.7,59.0,29.96,NW,313,0.0,2.0,83,0.00,,,0.26,weatherlink.com 1.10,2013-06-09 00:31:00,
2013-06-08 20:46:00,64.4,59.0,29.96,NNE,27,0.0,5.0,83,0.00,,,0.26,weatherlink.com 1.10,2013-06-09 00:46:00,
2013-06-08 21:01:00,64.1,59.0,29.97,NNE,26,0.0,4.0,83,0.00,,,0.26,weatherlink.com 1.10,2013-06-09 01:01:00,
2013-06-08 21:17:00,63.8,59.0,29.98,WSW,242,1.0,2.0,83,0.00,,,0.26,weatherlink.com 1.10,2013-06-09 01:17:00,
2013-06-08 21:31:00,63.6,58.0,29.99,NE,44,0.0,4.0,83,0.00,,,0.26,weatherlink.com 1.10,2013-06-09 01:31:00,
2013-06-08 21:46:00,63.3,58.0,29.99,ESE,107,1.0,5.0,84,0.00,,,0.26,weatherlink.com 1.10,2013-06-09 01:46:00,
2013-06-08 22:01:00,62.9,58.0,30.00,North,1,0.0,1.0,84,0.00,,,0.26,weatherlink.com 1.10,2013-06-09 02:01:00,
2013-06-08 22:17:00,62.2,58.0,30.00,NE,40,0.0,3.0,86,0.00,,,0.26,weatherlink.com 1.10,2013-06-09 02:17:00,
2013-06-08 22:31:00,60.4,57.0,30.01,NE,45,0.0,3.0,89,0.00,,,0.26,weatherlink.com 1.10,2013-06-09 02:31:00,
2013-06-08 22:47:00,59.5,57.0,30.01,NE,55,0.0,1.0,91,0.00,,,0.26,weatherlink.com 1.10,2013-06-09 02:47:00,
2013-06-08 23:02:00,59.4,57.0,30.02,NNE,20,0.0,2.0,91,0.00,,,0.26,weatherlink.com 1.10,2013-06-09 03:02:00,
2013-06-08 23:17:00,59.6,57.0,30.02,NNW,340,0.0,3.0,90,0.00,,,0.26,weatherlink.com 1.10,2013-06-09 03:17:00,
2013-06-08 23:32:00,59.4,57.0,30.02,ENE,62,0.0,0.0,90,0.00,,,0.26,weatherlink.com 1.10,2013-06-09 03:32:00,
2013-06-08 23:47:00,59.1,57.0,30.02,NNE,28,0.0,2.0,91,0.00,,,0.26,weatherlink.com 1.10,2013-06-09 03:47:00,